Location: Montreal
(45.5000°N, 73.5833°W)
Time: 22:56:05
(UTC-04:00)

OTV 5 (USA 277) - Pass Details

Date: 12 October 2017
Orbit: 404 x 417 km, 43.0° (Epoch: 07 September)

Event Time Altitude Azimuth Distance (km) Brightness Sun altitude
Rises 19:38:30 0° 243° (WSW) 2,350 ? -15.6°
Reaches altitude 10° 19:40:41 10° 236° (SW) 1,488 ? -16.0°
Maximum altitude 19:43:51 40° 166° (SSE) 630 ? -16.6°
Enters shadow 19:44:25 36° 139° (SE) 673 ? -16.7°
